Flag for Brazil Weather past 2 weeks in Santarém, Para, Brazil

Now
75 °F

Clear.


Feels Like: 74 °F
Forecast: 75 / 94 °F
Wind: 2 mph from Southeast

Location: Santarem-Aeroporto

Current Time: Oct 24, 2014 at 4:08:25 AM

Latest Report: Oct 24, 2014 at 3:00 AM


Visibility: 10 mi

Pressure: 29.83 "Hg

Humidity: 94%

Dew point: 73 °F

Location of SantarémLocation

Historic Weather in Santarém — Graph

°F

Santarém temperature yesterday

Maximum temperature yesterday: 88 °F (at 3:00 PM)
Minimum temperature yesterday: 75 °F (at 4:00 AM)
Average temperature yesterday: 80 °F

Past Weeks' High & Low Weather Summary

 TemperatureHumidityPressure
High93 °F (Oct 12, 3:00 PM)100% (Oct 16, 2:00 AM)29.95 "Hg (Oct 16, 2:00 AM)
Low73 °F (Oct 16, 4:00 AM)44% (Oct 20, 4:00 PM)29.68 "Hg (Oct 9, 5:00 PM)
Average83 °F77%29.85 "Hg
* Reported Oct 9 2:00 AM — Oct 24 2:00 AM, Santarém, Weather by CustomWeather, © 2014

Note: Actual official high and low records may vary slightly from our data, if they occured in-between our weather recording intervals... More about our weather records

Advertising

Santarém weather history for previous 24 hours

 ConditionsComfort  
Time TempWeatherWind HumidityBarometerVisibility
2:00 AM
Oct 24
75 °FClear.3 mph94%29.83 "Hg10 mi
1:00 AM75 °FClear.2 mph94%29.86 "Hg10 mi
12:00 AM75 °FClear.2 mph94%29.86 "Hg10 mi
11:00 PM
Oct 23
75 °FClear.2 mph94%29.86 "Hg10 mi
10:00 PM75 °FClear.3 mph94%29.83 "Hg10 mi
9:00 PM77 °FClear.3 mph89%29.83 "Hg10 mi
8:00 PM77 °FClear.3 mph94%29.77 "Hg10 mi
7:00 PM81 °FPassing clouds.5 mph84%29.74 "HgN/A
6:00 PM84 °FPassing clouds.6 mph70%29.74 "HgN/A
5:00 PM86 °FPassing clouds.7 mph66%29.74 "HgN/A
4:00 PM88 °FPassing clouds.12 mph75%29.77 "HgN/A
3:00 PM88 °FPassing clouds.10 mph66%29.83 "HgN/A
2:00 PM84 °FScattered clouds.7 mph74%29.86 "HgN/A
1:00 PM84 °FLight rain. Broken clouds.6 mph79%29.89 "HgN/A
12:00 PM82 °FScattered showers. Broken clouds.6 mph84%29.92 "HgN/A
11:00 AM82 °FScattered showers. Broken clouds.8 mph84%29.95 "HgN/A
10:00 AM82 °FBroken clouds.6 mph84%29.95 "HgN/A
9:00 AM77 °FBroken clouds.1 mph94%29.95 "HgN/A
8:00 AM77 °FLight rain. More clouds than sun.3 mph94%29.89 "HgN/A
7:00 AM75 °FLight rain. More clouds than sun.No wind94%29.89 "HgN/A
6:00 AM75 °FLight rain. Overcast.12 mph94%29.86 "HgN/A
5:00 AM75 °FThunderstorms. Mostly cloudy.8 mph94%N/AN/A
4:00 AM75 °FThunderstorms. Partly cloudy.15 mph94%N/AN/A
Weather by CustomWeather, © 2014

See weather overviewHow to use our weather pages